Back to catalog

COSMOS 1249 COOLANT *

AliveLEO
NORAD 29444·DEBRIS·🇷🇺 Russia

Launched Mar 5, 1981 from Baikonur Cosmodrome

Loading…

Next Passes (next 24 hours)

TLE

FreshSource: Space-Track

Epoch: Sep 13, 2026, 10:06 UTC

1 29444U 81021W   26256.42134156  .00000055  00000-0  11551-3 0  9998
2 29444  64.9628 186.6788 0063600 240.7792 118.6901 13.90135193616464

Track COSMOS 1249 COOLANT * in real time with AllMySat

Download on the App Store